User: anonymous   Login
Location: Unspecified
(0.0000°N, 0.0000°E)
Time: 00:55:40
(UTC+00:00)
Language:

FORMOSAT 3A - Orbit

View from above orbital plane
View from above orbital plane
View from above satellite
View from above satellite

Ground track
Ground track

The orbit data is extracted from the following two-line orbital elements,

1 29047U 06011A   17324.19662100 +.00000090 +00000-0 +51900-4 0  9990
2 29047 071.9797 228.8500 0052419 244.2740 115.2979 14.28609662607037
Epoch (UTC): 20 November 2017 04:43:08
Eccentricity: 0.0052419
inclination: 71.9797°
perigee height: 759 km
apogee height: 834 km
right ascension of ascending node: 228.8500°
argument of perigee: 244.2740°
revolutions per day: 14.28609662
mean anomaly at epoch: 115.2979°
orbit number at epoch: 60703

The dashed part of the orbit path shows where the satellite is in the earth's shadow,  

DLR